Regional Weather Roundup
Issued by NWS

Home | Current Version | Previous Version | Graphics & Text | Print | Product List | Glossary On
Versions: 1 2 3 4 5 6 7 8 9 10 11 12 13 14 15 16 17 18 19 20 21 22 23 24 25 26 27 28 29 30 31 32 33 34 35 36 37 38 39 40 41 42 43 44 45 46 47 48 49 50
000
ASUS43 KLOT 161706
RWRIL

ILLINOIS REGIONAL WEATHER ROUNDUP
NATIONAL WEATHER SERVICE CHICAGO/ROMEOVILLE IL
1200 PM CDT TUE SEP 16 2014

NOTE: "FAIR" INDICATES FEW OR NO CLOUDS BELOW 12,000 FEET WITH NO
SIGNIFICANT WEATHER AND/OR OBSTRUCTIONS TO VISIBILITY.

* THESE STATIONS ARE NOT UNDER NWS QUALITY CONTROL. THEY ALSO MAY NOT
  REPORT WEATHER SUCH AS PRECIPITATION OR FOG.

ILZ001-002-007-009-015-016-024-161800-
NORTHWEST ILLINOIS

CITY           SKY/WX    TMP DP  RH WIND       PRES   REMARKS
MOLINE         SUNNY     63  41  44 NW6       30.22F
STERLING*      SUNNY     64  43  45 N5        30.21F
SAVANNA*       SUNNY     62  39  44 N5        30.21F
$$

ILZ003-004-008-010-011-017-018-161800-
NORTH CENTRAL ILLINOIS

CITY           SKY/WX    TMP DP  RH WIND       PRES   REMARKS
ROCKFORD       MOSUNNY   63  41  44 W8        30.22F
FREEPORT*      SUNNY     59  41  51 N3        30.23F
ROCHELLE*      SUNNY     60  40  46 W6        30.21F
DE KALB*       SUNNY     59  41  51 W9        30.21S
PERU*          MOSUNNY   62  43  51 CALM      30.22F
$$

ILZ005-006-012>014-019>023-161800-
NORTHEAST ILLINOIS

CITY           SKY/WX    TMP DP  RH WIND       PRES   REMARKS
CHICAGO-OHARE  MOSUNNY   60  40  47 CALM      30.19F
CHICAGO-MIDWAY MOSUNNY   62  43  49 NW3       30.19F
AURORA         SUNNY     62  40  44 S3        30.20F
LANSING*       PTSUNNY   62  44  51 CALM      30.19F
JOLIET*        MOSUNNY   62  43  49 E3        30.21S
WAUKEGAN       SUNNY     61  40  45 VRB3      30.18F
DUPAGE AIRPORT SUNNY     64  42  44 W8        30.19F
KANKAKEE*      MOSUNNY   62  49  62 CALM      30.20F
WHEELING       SUNNY     63  39  41 VRB3      30.20F
MORRIS*        PTSUNNY   63  46  53 N3        30.20F
ROMEOVILLE*    MOSUNNY   61  43  51 CALM      30.19F
NORTHERLY ISL    N/A     60  50  69 NE7         N/A
$$

LMZ740>746-161800-
SOUTHERN LAKE MICHIGAN

STATION/POSITION SKY/WX   TEMP    WIND        PRES    VSBY  WAVE
                          AIR SEA DIR/SP/G                  HT/PER
                          (F)     (DEG/KT/KT) (MB)    (MI)  (FT/S)
SOUTHERN BUOY              58 64  310/  8/ 12 1022.4F         2/ 4
WAUKEGAN HARBOR            57      80/  6/  8   N/A
HARRISON CRIB              56     360/  5/  6   N/A
BURNHAM HARBOR             60      50/  6/  7   N/A
CALUMET HARBOR             59      60/  5/  5 1021.6F
MICHIGAN CITY              59     250/  7/  9   N/A
MICHIGAN CITY 6N           59 64  280/  6/  8   N/A           1/ 4
ST. JOSEPH                 59 67  200/  8/ 12   N/A           1/ 4
$$

ILZ025>027-034>036-040-047-049-050-058-095>099-161800-
WEST-CENTRAL ILLINOIS

CITY           SKY/WX    TMP DP  RH WIND       PRES   REMARKS
QUINCY         MOSUNNY   61  46  57 CALM      30.22F
GALESBURG*     SUNNY     66  50  55 E3        30.22F
MACOMB*        MOSUNNY   62  46  55 CALM      30.24F
JACKSONVILLE*  MOSUNNY   63  50  62 CALM      30.22F
PITTSFIELD*    PTSUNNY   64  50  59 CALM      30.23F
$$

ILZ028>032-037-038-041>044-048-051>054-059>061-161800-
CENTRAL ILLINOIS

CITY           SKY/WX    TMP DP  RH WIND       PRES   REMARKS
PONTIAC        SUNNY     63  48  59 CALM      30.20F
DECATUR        CLOUDY    62  50  64 N5        30.22F
PEORIA         MOSUNNY   63  46  54 CALM      30.21F
LACON*         MOSUNNY   61  46  57 CALM      30.21F
LINCOLN*       MOSUNNY   65  49  58 CALM      30.19F
SPRINGFIELD    PTSUNNY   63  51  65 E5        30.22F
TAYLORVILLE    CLOUDY    59  50  72 N5        30.22F
$$

ILZ033-039-045-046-055>057-062-063-161800-
EAST-CENTRAL ILLINOIS

CITY           SKY/WX    TMP DP  RH WIND       PRES   REMARKS
CHAMPAIGN      PTSUNNY   62  48  60 CALM      30.20F
DANVILLE*      PTSUNNY   60  49  66 N3        30.18S
RANTOUL*       PTSUNNY   64  47  55 CALM      30.21S
MATTOON        CLOUDY    58  51  78 E5        30.21S
PARIS*         PTSUNNY   62  54  75 N5        30.21F
$$

ILZ079-100>102-161800-
SOUTHWEST ILLINOIS

CITY           SKY/WX    TMP DP  RH WIND       PRES   REMARKS
ALTON          CLOUDY    61  52  72 NE7       30.22F
BELLEVILLE     CLOUDY    62  54  73 NW6       30.21F
CAHOKIA*       CLOUDY    63  53  70 N6        30.21F
SPARTA*        CLOUDY    62  53  72 N8        30.21F
$$

ILZ064>066-069>071-074>076-080>082-084>086-088>090-092>094-161800-
SOUTH-CENTRAL ILLINOIS

CITY           SKY/WX    TMP DP  RH WIND       PRES   REMARKS
CARBONDALE     CLOUDY    62  52  69 N5        30.20F
CAIRO*         CLOUDY    67  56  67 N10       30.18S
EFFINGHAM*     CLOUDY    58  51  75 CALM      30.21F
MARION         CLOUDY    63  54  72 NE7       30.20F
MT. VERNON     CLOUDY    59  50  72 NE7       30.22S
CENTRALIA*     CLOUDY    60  52  74 NE5       30.21F
SALEM*         CLOUDY    62  56  80 NE3       30.21F
METROPOLIS*    CLOUDY    65  55  70 CALM      30.18S
$$

ILZ067-068-072-073-078-083-087-091-161800-
SOUTHEAST ILLINOIS

CITY           SKY/WX    TMP DP  RH WIND       PRES   REMARKS
LAWRENCEVILLE  CLOUDY    61  53  75 N6        30.20F
FLORA*         SUNNY     58  51  78 NE6       30.22S
FAIRFIELD*     CLOUDY   N/A N/A N/A N6        30.21S
HARRISBURG*    CLOUDY    62  54  74 N7        30.20S
ROBINSON*      CLOUDY    60  55  83 NE5       30.22S
CARMI*         CLOUDY    63  56  77 N8        30.19F
$$

ABBREVIATIONS USED IN REMARKS
   TC - TEMPERATURE IN CELSIUS
  WCI - WIND CHILL INDEX
   HX - HEAT INDEX
  VSB - VISIBILITY
$$



USA.gov is the U.S. government's official web portal to all federal, state and local government web resources and services.